EST,Max TemperatureF,Mean TemperatureF,Min TemperatureF,Max Dew PointF,MeanDew PointF,Min DewpointF,Max Humidity, Mean Humidity, Min Humidity, Max Sea Level PressureIn, Mean Sea Level PressureIn, Min Sea Level PressureIn, Max VisibilityMiles, Mean VisibilityMiles, Min VisibilityMiles, Max Wind SpeedMPH, Mean Wind SpeedMPH, Max Gust SpeedMPH,PrecipitationIn, CloudCover, Events, WindDirDegrees
2012-1-1,66,51,35,54,40,26,92,64,35,30.11,30.03,29.90,10,10,7,25,9,36,0.00,2,,235
2012-1-2,49,37,25,24,14,3,64,41,17,30.14,30.04,29.93,10,10,10,21,8,32,0.00,0,,301
2012-1-3,37,29,20,8,6,2,52,39,25,30.33,30.27,30.15,10,10,10,17,6,26,0.00,0,,334
2012-1-4,48,33,18,17,11,4,73,45,16,30.36,30.24,30.09,10,10,10,16,6,20,0.00,0,,220
2012-1-5,59,45,30,28,24,19,78,51,24,30.14,30.09,30.05,10,10,10,15,5,22,0.00,0,,247
2012-1-6,66,49,32,30,26,24,64,43,22,30.09,30.03,29.97,10,10,10,14,6,17,0.00,0,,219
2012-1-7,71,57,43,54,44,29,89,68,46,30.07,30.01,29.96,10,10,10,18,9,24,0.03,2,Rain,232
2012-1-8,57,53,48,52,50,46,100,92,83,30.22,30.17,30.07,10,9,5,9,4,12,0.06,7,Rain,18
2012-1-9,52,50,47,50,46,42,100,87,74,30.20,30.13,30.05,10,7,0,8,3,10,0.02,8,Fog-Rain,33
2012-1-10,58,54,50,52,50,47,100,84,67,30.09,30.02,29.93,10,5,0,10,3,15,0.00,7,Fog,92
2012-1-11,62,56,49,58,51,43,100,82,64,29.91,29.69,29.47,10,5,0,26,11,37,0.67,7,Fog-Rain-Thunderstorm,110
2012-1-12,58,46,33,47,40,14,86,69,52,29.75,29.62,29.53,10,10,10,33,15,45,T,3,Rain,233
2012-1-13,41,34,26,18,16,11,63,52,40,30.09,29.96,29.79,10,10,10,21,12,28,0.00,0,,240
2012-1-14,49,36,22,21,18,13,81,54,27,30.22,30.14,30.09,10,10,10,18,7,23,0.00,1,,224
2012-1-15,51,41,30,25,22,19,69,50,30,30.48,30.34,30.09,10,10,10,15,5,23,0.00,0,,277
2012-1-16,49,39,29,33,28,21,78,62,46,30.55,30.45,30.34,10,10,10,13,3,21,0.00,4,,219
2012-1-17,55,46,37,54,46,32,89,80,70,30.31,30.07,29.91,10,8,1,17,8,20,0.93,7,Rain-Thunderstorm,234
2012-1-18,55,46,36,54,33,19,100,65,30,30.07,29.99,29.90,10,10,8,14,5,16,0.02,2,Rain,357
2012-1-19,46,37,28,27,24,20,70,58,45,30.21,30.12,30.07,10,10,10,9,6,13,0.00,0,,213
2012-1-20,51,43,35,45,37,25,100,75,50,30.13,30.08,30.05,10,6,1,9,3,12,0.60,7,Rain,124
2012-1-21,55,49,43,54,48,42,100,96,92,30.07,29.94,29.85,10,3,0,12,3,15,1.03,8,Fog-Rain-Thunderstorm,236
2012-1-22,50,44,38,49,40,35,100,88,76,30.29,30.21,30.09,10,9,2,17,10,21,0.00,8,,47
2012-1-23,46,42,37,45,38,35,100,96,92,30.24,30.11,30.02,10,4,1,18,5,22,0.43,8,Rain,41
2012-1-24,63,53,42,47,44,35,100,74,48,30.22,30.12,30.02,10,5,0,13,4,15,0.00,4,Fog,230
2012-1-25,64,50,36,45,37,30,82,58,34,30.31,30.22,30.16,10,10,10,8,3,12,0.00,2,,104
2012-1-26,62,56,49,59,50,42,93,77,61,30.14,29.94,29.68,10,8,2,20,2,25,0.08,7,Rain,118
2012-1-27,65,52,39,59,48,33,93,64,34,30.01,29.76,29.62,10,10,10,25,9,33,0.06,4,Rain,229
2012-1-28,66,50,33,38,32,18,92,63,34,30.23,30.10,30.01,10,10,10,15,3,22,0.00,0,,311
2012-1-29,55,42,29,18,12,5,53,33,13,30.38,30.30,30.24,10,10,10,20,6,25,0.00,0,,256
2012-1-30,62,46,30,22,18,14,63,40,17,30.43,30.35,30.30,10,10,10,16,7,21,0.00,0,,226
2012-1-31,64,50,36,32,24,19,59,39,19,30.38,30.32,30.27,10,10,10,18,9,23,0.00,0,,224